Regional Weather Roundup
Issued by NWS

Home | Current Version | Previous Version | Graphics & Text | Print | Product List | Glossary On
Versions: 1 2 3 4 5 6 7 8 9 10 11 12 13 14 15 16 17 18 19 20 21 22 23 24 25 26 27 28 29 30 31 32 33 34 35 36 37 38 39 40 41 42 43 44 45 46 47 48 49 50
000
ASUS45 KCYS 052210
RWRWY

WYOMING REGIONAL WEATHER ROUNDUP
NATIONAL WEATHER SERVICE CHEYENNE WY
400 PM MDT TUE MAY 05 2015

NOTE:  "FAIR" INDICATES FEW OR NO CLOUDS BELOW 12,000 FEET
WITH NO SIGNIFICANT WEATHER AND/OR OBSTRUCTIONS TO VISIBILITY.

WYZ001-052300-
YELLOWSTONE NATIONAL PARK

CITY           SKY/WX    TMP DP  RH WIND       PRES   REMARKS
LK YELLOWSTONE   N/A     53  31  42 VRB3      29.90F
W YELLOWSTONE  NOT AVBL

$$
WYZ002>013-054>058-071-098>099-052300-
NORTHERN WYOMING

CITY           SKY/WX    TMP DP  RH WIND       PRES   REMARKS
JACKSON        CLOUDY    55  37  50 W12G17    29.82S
CODY           FAIR      70  37  30 S14       29.74F
GREYBULL       FAIR      80  31  16 W7G16     29.64F
WORLAND        FAIR      77  36  22 W5        29.67F
SHERIDAN       FAIR      71  44  37 SE14      29.72F
BUFFALO        FAIR      68  43  40 SE10G17   29.79F
GILLETTE       FAIR      69  47  45 S23G33    29.79F
HULETT         FAIR      72  43  35 SW13      29.81F
NEWCASTLE      FAIR      64  45  48 SE22G28   29.86F

$$
WYZ014>020-022>026-101>103-052300-
CENTRAL WYOMING

CITY           SKY/WX    TMP DP  RH WIND       PRES   REMARKS
BIG PINEY      PTSUNNY   57  37  47 W14       29.83F
PINEDALE       MOCLDY    61  34  36 W13       29.83F
DUBOIS         MOCLDY    61  30  31 CALM      29.81F
LANDER         FAIR      68  38  33 SW5       29.74F
RIVERTON       FAIR      72  36  26 VRB3      29.75F
CASPER         FAIR      68  45  43 NE7       29.76F
DOUGLAS        FAIR      64  47  53 SE28G37   29.82F

$$
WYZ021-027>030-104>119-052300-
SOUTHERN WYOMING

CITY           SKY/WX    TMP DP  RH WIND       PRES   REMARKS
EVANSTON       LGT RAIN  49  44  83 SE3       29.90F
KEMMERER       RAIN      50  41  71 SE7       29.89R
FORT BRIDGER   CLOUDY    48  48 100 S13G25    29.91S
ROCK SPRINGS   CLOUDY    62  34  35 NE14      29.80F
DIXON          CLOUDY    59  40  50 NE17G24   29.83S
RAWLINS        FAIR      65  33  30 N5G17     29.81F
SARATOGA       CLOUDY    59  41  51 E12       29.83R
LARAMIE        PTSUNNY   51  41  68 SE26G35   29.86F
CHEYENNE       LGT RAIN  48  47  96 SE16      29.89F FOG
TORRINGTON     CLOUDY    61  49  64 SE17G25   29.85F
PINE BLUFFS    LGT RAIN  52  48  87 SE15      29.90F

$$



USA.gov is the U.S. government's official web portal to all federal, state and local government web resources and services.